Weather History for KSLB - November, 2011

Change the Weather History Date:

Saturday, November 5, 2011

  Actual Average Record
Temperature  
Mean Temperature 46 °F -  
Max Temperature 59 °F 49 °F 75 °F (2001)
Min Temperature 34 °F 31 °F 26 °F (2003)
Degree Days  
Heating Degree Days 18    
Moisture  
Dew Point 36 °F    
Average Humidity 71    
Maximum Humidity 93    
Minimum Humidity 39    
Precipitation  
Precipitation 0.00 in - - ()
Sea Level Pressure  
Sea Level Pressure 29.80 in    
Wind  
Wind Speed 17 mph (SSE)    
Max Wind Speed 32 mph    
Max Gust Speed 40 mph    
Visibility 9 miles    
Events      
Averages and records for this station are not official NWS values.
T = Trace of Precipitation, MM = Missing Value Source: NWS Daily Summary

Daily Weather History Graph

Daily Weather History Graph

Search for Another Location

Airport or City:

Trip Planner

Search our weather history database for the weather conditions in past years. The results will help you decide how hot, cold, wet, or windy it might be!

Date:

Astronomy

Nov. 05, 2011 Rise Set
Actual Time 7:59 AM CDT 6:09 PM CDT
Civil Twilight 7:29 AM CDT 6:38 PM CDT
Nautical Twilight 6:56 AM CDT 7:12 PM CDT
Astronomical Twilight 6:23 AM CDT 7:45 PM CDT
Moon 3:32 PM CDT (11/5) 3:04 AM CDT (11/5)
Length of Visible Light 11h 08m
Length of Day
10h 09m
Waxing Gibbous, 78% of the Moon is Illuminated
Nov 5
Waxing Gibbous
Nov 10
Full
Nov 18
Last Quarter
Nov 25
New
Dec 2
First Quarter

Hourly Weather History & Observations

Time (CDT) Temp. Windchill Dew Point Humidity Pressure Visibility Wind Dir Wind Speed Gust Speed Precip Events Conditions
12:35 AM 37.2 °F 31.2 °F 31.3 °F 79% 30.01 in 10.0 mi SSE 8.1 mph - N/A   Clear
12:55 AM 36.5 °F 30.3 °F 31.5 °F 82% 30.00 in 10.0 mi SSE 8.1 mph - N/A   Clear
1:15 AM 37.0 °F 29.8 °F 32.0 °F 82% 30.00 in 10.0 mi SSE 10.4 mph - N/A   Clear
1:35 AM 37.2 °F 29.1 °F 32.5 °F 83% 29.99 in 10.0 mi SSE 12.7 mph - N/A   Clear
1:55 AM 38.5 °F 30.3 °F 33.8 °F 83% 29.98 in 10.0 mi SSE 13.8 mph 21.9 mph N/A   Clear
2:35 AM 36.9 °F 28.2 °F 32.7 °F 85% 29.98 in 10.0 mi SE 13.8 mph - N/A   Clear
2:55 AM 36.5 °F 28.2 °F 32.5 °F 86% 29.97 in 10.0 mi SE 12.7 mph - N/A   Clear
3:15 AM 36.1 °F 27.7 °F 32.4 °F 86% 29.96 in 10.0 mi SE 12.7 mph - N/A   Clear
3:35 AM 36.0 °F 29.0 °F 32.2 °F 86% 29.96 in 10.0 mi SE 9.2 mph - N/A   Clear
3:55 AM 34.2 °F 25.7 °F 31.1 °F 89% 29.95 in 10.0 mi SE 11.5 mph - N/A   Clear
4:35 AM 34.0 °F 25.0 °F 31.3 °F 90% 29.94 in 7.0 mi SE 12.7 mph - N/A   Clear
4:55 AM 34.2 °F 24.8 °F 31.8 °F 91% 29.94 in 7.0 mi SE 13.8 mph - N/A   Clear
5:15 AM 34.5 °F 24.8 °F 32.0 °F 90% 29.93 in 7.0 mi SE 15.0 mph - N/A   Clear
5:55 AM 34.2 °F 25.7 °F 32.0 °F 92% 29.93 in 5.0 mi SE 11.5 mph - N/A   Clear
6:15 AM 34.0 °F 25.5 °F 32.0 °F 92% 29.92 in 4.0 mi SE 11.5 mph - N/A   Clear
6:35 AM 34.5 °F 25.3 °F 32.4 °F 92% 29.92 in 4.0 mi SSE 13.8 mph - N/A   Clear
7:06 AM 35.6 °F 27.1 °F 33.8 °F 93% 29.90 in 4.0 mi SE 12.7 mph - N/A   Clear
7:15 AM 35.4 °F 26.4 °F 32.9 °F 91% 29.90 in 3.0 mi SE 13.8 mph - N/A   Clear
7:35 AM 35.6 °F 25.9 °F 33.3 °F 91% 29.89 in 4.0 mi SE 16.1 mph - N/A   Clear
8:15 AM 36.0 °F 26.0 °F 33.6 °F 91% 29.89 in 2.5 mi SE 17.3 mph - N/A   Clear
8:35 AM 37.4 °F 28.2 °F 35.1 °F 91% 29.89 in 3.0 mi SE 16.1 mph - N/A   Clear
9:15 AM 39.4 °F 29.8 °F 36.7 °F 90% 29.87 in 4.0 mi SSE 19.6 mph 23.0 mph N/A   Clear
9:55 AM 41.4 °F 33.3 °F 37.9 °F 88% 29.87 in 5.0 mi SSE 16.1 mph 21.9 mph N/A   Scattered Clouds
10:55 AM 44.6 °F 36.6 °F 39.6 °F 82% 29.84 in 10.0 mi South 19.6 mph 25.3 mph N/A   Clear
11:15 AM 46.6 °F - 40.1 °F 78% 29.84 in 10.0 mi South 26.5 mph 32.2 mph N/A   Clear
11:35 AM 48.9 °F - 39.7 °F 71% 29.84 in 10.0 mi South 27.6 mph 32.2 mph N/A   Clear
12:15 PM 51.3 °F - 37.0 °F 58% 29.82 in 10.0 mi South 27.6 mph 39.1 mph N/A   Clear
12:55 PM 55.2 °F - 35.8 °F 48% 29.79 in 10.0 mi South 32.2 mph 38.0 mph N/A   Clear
1:15 PM 56.3 °F - 34.3 °F 44% 29.79 in 10.0 mi South 32.2 mph 40.3 mph N/A   Clear
1:35 PM 57.0 °F - 34.3 °F 42% 29.79 in 10.0 mi South 32.2 mph 36.8 mph N/A   Clear
1:55 PM 57.7 °F - 34.2 °F 41% 29.78 in 10.0 mi South 32.2 mph 36.8 mph N/A   Clear
2:15 PM 58.3 °F - 34.5 °F 41% 29.77 in 10.0 mi South 31.1 mph 36.8 mph N/A   Clear
2:35 PM 58.3 °F - 34.3 °F 41% 29.76 in 10.0 mi South 26.5 mph 34.5 mph N/A   Clear
2:55 PM 59.4 °F - 34.3 °F 39% 29.75 in 10.0 mi SSE 24.2 mph 33.4 mph N/A   Clear
3:15 PM 58.3 °F - 34.5 °F 41% 29.74 in 10.0 mi SSE 23.0 mph 33.4 mph N/A   Clear
3:35 PM 57.4 °F - 34.2 °F 42% 29.73 in 10.0 mi South 27.6 mph 33.4 mph N/A   Clear
3:55 PM 57.6 °F - 33.6 °F 41% 29.72 in 10.0 mi SSE 26.5 mph 36.8 mph N/A   Clear
4:35 PM 56.7 °F - 35.2 °F 45% 29.71 in 10.0 mi SSE 26.5 mph 38.0 mph N/A   Clear
4:55 PM 55.4 °F - 36.3 °F 49% 29.71 in 10.0 mi SSE 25.3 mph 33.4 mph N/A   Clear
5:15 PM 54.9 °F - 37.2 °F 51% 29.71 in 10.0 mi SSE 23.0 mph 29.9 mph N/A   Clear
5:35 PM 54.3 °F - 37.2 °F 52% 29.71 in 10.0 mi SSE 20.7 mph 29.9 mph N/A   Clear
5:55 PM 53.4 °F - 38.1 °F 56% 29.70 in 10.0 mi SSE 24.2 mph 28.8 mph N/A   Clear
6:15 PM 52.5 °F - 38.5 °F 59% 29.68 in 10.0 mi SE 26.5 mph 32.2 mph N/A   Clear
6:35 PM 52.0 °F - 37.9 °F 59% 29.68 in 10.0 mi SE 21.9 mph 31.1 mph N/A   Clear
6:55 PM 51.3 °F - 38.3 °F 61% 29.69 in 10.0 mi SE 20.7 mph 24.2 mph N/A   Clear
7:15 PM 50.5 °F - 38.5 °F 63% 29.68 in 10.0 mi SE 19.6 mph 26.5 mph N/A   Clear
7:35 PM 50.4 °F - 39.2 °F 66% 29.66 in 10.0 mi SE 24.2 mph 31.1 mph N/A   Clear
7:55 PM 50.2 °F - 39.4 °F 66% 29.66 in 10.0 mi SE 24.2 mph 38.0 mph N/A   Clear
8:15 PM 49.8 °F - 39.6 °F 68% 29.66 in 10.0 mi SE 28.8 mph 36.8 mph N/A   Clear
8:35 PM 49.3 °F - 39.7 °F 70% 29.66 in 10.0 mi SE 25.3 mph 34.5 mph N/A   Clear
8:55 PM 49.1 °F - 40.1 °F 71% 29.67 in 10.0 mi SSE 25.3 mph 33.4 mph N/A   Clear
9:15 PM 48.7 °F - 40.5 °F 73% 29.67 in 10.0 mi SSE 25.3 mph 33.4 mph N/A   Clear
9:35 PM 48.4 °F - 40.5 °F 74% 29.68 in 10.0 mi SSE 25.3 mph 31.1 mph N/A   Clear
9:55 PM 48.4 °F - 40.5 °F 74% 29.69 in 10.0 mi SSE 24.2 mph 33.4 mph N/A   Clear
10:15 PM 48.2 °F - 40.3 °F 74% 29.69 in 10.0 mi SSE 25.3 mph 33.4 mph N/A   Clear
10:35 PM 47.5 °F - 40.1 °F 76% 29.69 in 10.0 mi SSE 24.2 mph 33.4 mph N/A   Clear
10:55 PM 47.1 °F - 39.9 °F 76% 29.68 in 10.0 mi SSE 21.9 mph 28.8 mph N/A   Clear
11:15 PM 46.8 °F - 39.9 °F 77% 29.67 in 10.0 mi SSE 20.7 mph 27.6 mph N/A   Clear
11:35 PM 46.8 °F - 39.9 °F 77% 29.66 in 10.0 mi SSE 19.6 mph 29.9 mph N/A   Clear
11:55 PM 46.8 °F - 39.7 °F 77% 29.65 in 10.0 mi SSE 18.4 mph 25.3 mph N/A   Clear